Regional Weather Roundup
Issued by NWS

Home | Current Version | Previous Version | Text Only | Print | Product List | Glossary Off
Versions: 1 2 3 4 5 6 7 8 9 10 11 12 13 14 15 16 17 18 19 20 21 22 23 24 25 26 27 28 29 30 31 32 33 34 35 36 37 38 39 40 41 42 43 44 45 46 47 48 49 50

000
ASUS43 KLOT 270103
RWRIL

ILLINOIS REGIONAL WEATHER ROUNDUP
NATIONAL WEATHER SERVICE CHICAGO/ROMEOVILLE IL
800 PM CDT WED APR 26 2017

NOTE: "FAIR" INDICATES FEW OR NO CLOUDS BELOW 12,000 FEET WITH NO
SIGNIFICANT WEATHER AND/OR OBSTRUCTIONS TO VISIBILITY.

* THESE STATIONS ARE NOT UNDER NWS QUALITY CONTROL. THEY ALSO MAY NOT
  REPORT WEATHER SUCH AS PRECIPITATION OR FOG.

ILZ001-002-007-009-015-016-024-270200-
NORTHWEST ILLINOIS

CITY           SKY/WX    TMP DP  RH WIND       PRES   REMARKS
MOLINE         CLOUDY    51  46  83 NW7       29.50F
STERLING*      LGT RAIN  51  49  92 NW10      29.49S
SAVANNA*       CLOUDY    51  46  83 NW9       29.50S
$$

ILZ003-004-008-010-011-017-018-270200-
NORTH CENTRAL ILLINOIS

CITY           SKY/WX    TMP DP  RH WIND       PRES   REMARKS
ROCKFORD       LGT RAIN  54  50  86 W10       29.51R
FREEPORT*      LGT RAIN  50  48  92 W9        29.51S
ROCHELLE*      RAIN      53  52  94 W13       29.49R
DE KALB*       CLOUDY    56  53  89 W6        29.48S
PERU*          CLOUDY    54  50  87 NW8       29.49S
$$

ILZ005-006-012>014-019>023-270200-
NORTHEAST ILLINOIS

CITY           SKY/WX    TMP DP  RH WIND       PRES   REMARKS
CHICAGO-OHARE  CLOUDY    65  56  72 W8        29.45R
CHICAGO-MIDWAY CLOUDY    68  57  68 W9        29.46R
AURORA         CLOUDY    60  55  83 W7        29.48R
LANSING*       CLOUDY    69  58  68 W8        29.46R
JOLIET*        CLOUDY    64  59  83 W5        29.48R
WAUKEGAN       CLOUDY    63  56  78 CALM      29.45F
DUPAGE AIRPORT CLOUDY    61  57  87 W5        29.46F
KANKAKEE*      RAIN      66  56  70 CALM      29.47S
WHEELING       CLOUDY    65  57  75 W8        29.46F
MORRIS*        CLOUDY    61  56  83 CALM      29.46S
NORTHERLY ISL    N/A     68  55  63 W8          N/A
$$

LMZ740>746-270200-
SOUTHERN LAKE MICHIGAN

STATION/POSITION SKY/WX   TEMP    WIND        PRES    VSBY  WAVE
                          AIR SEA DIR/SP/G                  HT/PER
                          (F)     (DEG/KT/KT) (MB)    (MI)  (FT/S)
SOUTHERN BUOY              50 42  160/  8/  8  998.1          1
HARRISON CRIB              70     270/  7/ 10   N/A
BURNHAM HARBOR             68     290/ 10/ 11   N/A
CALUMET HARBOR             72     240/  5/  8  996.9R
BURNS HARBOR               73     190/  8/ 12  997.6F
MICHIGAN CITY              74     170/  5/  6   N/A
MICHIGAN CITY 6N           64 49                N/A           1/ 3
ST. JOSEPH                 58 49  160/  6/  8  997.6F         1/ 4
$$

ILZ025>027-034>036-040-047-049-050-058-095>099-270200-
WEST-CENTRAL ILLINOIS

CITY           SKY/WX    TMP DP  RH WIND       PRES   REMARKS
QUINCY         CLOUDY    48  47  96 N10       29.49S FOG
GALESBURG*     CLOUDY    49  46  90 NW10      29.48F
MACOMB*        CLOUDY    49  47  92 N13       29.49F
JACKSONVILLE*  RAIN      54  53  97 NE7       29.43F
PITTSFIELD*    DRIZZLE   52  51  97 NW12      29.48R
$$

ILZ028>032-037-038-041>044-048-051>054-059>061-270200-
CENTRAL ILLINOIS

CITY           SKY/WX    TMP DP  RH WIND       PRES   REMARKS
PONTIAC        LGT RAIN  62  60  94 NW5       29.48S
BLOOMINGTON    LGT RAIN  60  58  92 CALM      29.49S
DECATUR        LGT RAIN  61  61 100 SE6       29.47S
PEORIA         CLOUDY    54  53  97 N5        29.46F
LACON*         DRIZZLE   54  52  93 NW8       29.47F
LINCOLN*       LGT RAIN  62  62  99 CALM      29.45F
SPRINGFIELD    LGT RAIN  62  59  90 S8        29.46F
TAYLORVILLE    RAIN      60  60  99 S5        29.48R
$$

ILZ033-039-045-046-055>057-062-063-270200-
EAST-CENTRAL ILLINOIS

CITY           SKY/WX    TMP DP  RH WIND       PRES   REMARKS
CHAMPAIGN      RAIN      62  60  93 S12       29.52R FOG
RANTOUL*       RAIN      63  61  94 S12       29.52R
MATTOON        TSTM      59  59 100 NE9       29.43F
PARIS*         RAIN      64  63  94 SW5       29.51R
$$

ILZ079-100>102-270200-
SOUTHWEST ILLINOIS

CITY           SKY/WX    TMP DP  RH WIND       PRES   REMARKS
ALTON          RAIN      59  59 100 SE12      29.47F FOG
BELLEVILLE     LGT RAIN  61  61 100 E9        29.47F
CAHOKIA*       RAIN      61  58  90 SE15      29.43F
SPARTA*        RAIN      59  57  94 SE12      29.53R
$$

ILZ064>066-069>071-074>076-080>082-084>086-088>090-092>094-270200-
SOUTH-CENTRAL ILLINOIS

CITY           SKY/WX    TMP DP  RH WIND       PRES   REMARKS
CARBONDALE     NOT AVBL
CAIRO*         RAIN      57  57  97 E7        29.52F
EFFINGHAM*     HVY RAIN  60  60 100 S10       29.53R
MARION         HVY RAIN  61  59  94 S7        29.59R
MT. VERNON     TSTM      60  59  96 VRB3      29.52S FOG
CENTRALIA*     RAIN      61  61  99 CALM      29.50F
SALEM*         RAIN      62  60  93 S8        29.54R
METROPOLIS*    TSTM      58  57  95 N8        29.54S
$$

ILZ067-068-072-073-078-083-087-091-270200-
SOUTHEAST ILLINOIS

CITY           SKY/WX    TMP DP  RH WIND       PRES   REMARKS
LAWRENCEVILLE  CLOUDY    64  61  90 W12G23    29.50S
FLORA*         LGT RAIN  61  60  95 W6        29.51R
FAIRFIELD*     CLOUDY    60  60 100 SW8       29.52R
HARRISBURG*    CLOUDY    59  59  98 CALM      29.55R
ROBINSON*      CLOUDY    62  62  98 W16       29.53R
CARMI*         CLOUDY    62  59  90 NE6       29.49S
$$

ABBREVIATIONS USED IN REMARKS
   TC - TEMPERATURE IN CELSIUS
  WCI - WIND CHILL INDEX
   HX - HEAT INDEX
  VSB - VISIBILITY
$$





USA.gov is the U.S. government's official web portal to all federal, state and local government web resources and services.